RADUGA-1 5 [-]

Last updated on Jan. 21, 2021, 6:16 a.m. UTC

1 26477U 00049A   21020.89130932 -.00000208  00000-0  00000-0 0  9990
2 26477  12.8208  22.2970 0006187  13.6160 130.0203  1.00337044 74631
UTC
Height (km)
Latitude
Longitude
Inclination
Orbital Period
UTC large
Height (km)
Speed (km/s)
/
Latitude / Longitude
Inclination (degrees)
Orbital Period (minutes)
Azimuth
Elevation
Range (km)
Doppler Factor
iOS Compass Heading
iOS Angle

Next 30 passes for location: Hong Kong

Rise time Rise Azimuth (degrees) Set time Set Azimuth (degrees) Duration Max altitude (degrees)

No matching passes for this satellites